Regional Weather Roundup
Issued by NWS Columbia, SC

Current Version | Previous Version | Graphics & Text | Print | Product List | Glossary On
Versions: 1 2 3 4 5 6 7 8 9 10 11 12 13 14 15 16 17 18 19 20 21 22 23 24 25 26 27 28 29 30 31 32 33 34 35 36 37 38 39 40 41 42 43 44 45 46 47 48 49 50
000
ASUS42 KCAE 230910
RWRCAE
REGIONAL WEATHER ROUNDUP
NATIONAL WEATHER SERVICE COLUMBIA SC
400 AM EST THU JAN 23 2020

NOTE: "FAIR" INDICATES FEW OR NO CLOUDS BELOW 12,000 FEET WITH NO
SIGNIFICANT WEATHER AND/OR OBSTRUCTIONS TO VISIBILITY.

NOT ALL STATIONS ARE QUALITY CONTROLLED BY THE NATIONAL
WEATHER SERVICE. USE DATA WITH CAUTION...ESPECIALLY
DEWPOINT OBSERVATIONS.

SCZ001>056-GAZ040-063>065-077-231000-
...UPSTATE SOUTH CAROLINA...

CITY           SKY/WX    TMP DP  RH WIND       PRES   REMARKS
ANDERSON       FAIR      37  16  42 NE9       30.30F WCI  30
LIBERTY        CLOUDY    35  19  51 NE3       30.30F
SPARTANBURG    FAIR      32  18  55 N5        30.33S WCI  27
CLEMSON        CLOUDY    36  17  46 NE8       30.31F WCI  30
GREENVILLE     FAIR      36  16  44 NE12      30.32F WCI  28
GREENWOOD      FAIR      32  19  58 N7        30.32F WCI  26
GREER          FAIR      31  17  56 NE7       30.33F WCI  24
ROCK HILL      FAIR      34  16  47 NE6       30.34S WCI  29
CHESTER        FAIR      32  19  59 NE6       30.34S WCI  26
LAURENS        FAIR      32  19  59 N5        30.33S WCI  27


...CENTRAL SOUTH CAROLINA...

CITY           SKY/WX    TMP DP  RH WIND       PRES   REMARKS
COLUMBIA APT   FAIR      36  19  50 N5        30.31S WCI  32
COLUMBIA OWENS FAIR      37  19  48 CALM      30.32S
MCENTIRE ANGB  FAIR      36  18  49 N7        30.30S WCI  30
ORANGEBURG     FAIR      37  22  54 NE6       30.29F WCI  32
SUMTER SHAW    FAIR      35  21  58 NE9       30.30F WCI  27
NEWBERRY       FAIR      32  21  64 NE9       30.35S WCI  24
AIKEN          FAIR      37  19  49 NE10      30.30S WCI  29
BARNWELL       CLOUDY    37  21  52 NE9       30.28F WCI  31
MANNING        FAIR      34  25  69 NE7       30.29F WCI  28
CAMDEN         FAIR      34  19  55 N7        30.32S WCI  28
LANCASTER      PTSUNNY   32  18  55 CALM      30.32F
WINNSBORO      FAIR      34  19  55 N3        30.31F


...EASTERN AND COASTAL SOUTH CAROLINA...

CITY           SKY/WX    TMP DP  RH WIND       PRES   REMARKS
MYRTLE BEACH   FAIR      37  30  75 N7        30.28S WCI  32
N MYRTLE BCH   FAIR      37  31  78 N8        30.26F WCI  31
CONWAY         FAIR      34  28  80 N3        30.28F
MARION         FAIR      34  28  80 N7        30.31F WCI  28
HARTSVILLE     FAIR      34  21  60 NE9       30.32F WCI  26
FLORENCE       FAIR      35  23  61 N8        30.31F WCI  29
DARLINGTON     FAIR      32  23  69 N9        30.32F WCI  24
CHARLESTON APT FAIR      37  28  70 N8        30.26F WCI  31
MOUNT PLEASANT CLOUDY    37  30  75 VRB3      30.25F
WALTERBORO     FAIR      37  28  70 NE6       30.28S WCI  33
BEAUFORT       FAIR      41  32  70 N9        30.25S
HILTON HEAD    FAIR      43  34  70 N16G22    30.23F


...EASTERN GEORGIA...

CITY           SKY/WX    TMP DP  RH WIND       PRES   REMARKS
AUGUSTA BUSH F FAIR      37  25  61 N6        30.28F WCI  32
AUGUSTA DANIEL FAIR      40  19  43 NE6       30.29S
THOMSON        MOCLDY    38  20  48 SE6       30.28F WCI  33
WASHINGTON     FAIR      36  19  51 NE5       30.29F WCI  32
CLAXTON        FAIR      42  30  61 NE6       30.24S
SYLVANIA       FAIR      40  27  59 NE8       30.26F WCI  35
STATESBORO     FAIR      39  27  62 N7        30.24F WCI  34
SAVANNAH       FAIR      42  33  70 N7        30.24S


...SOUTHERN NORTH CAROLINA...

CITY           SKY/WX    TMP DP  RH WIND       PRES   REMARKS
CHARLOTTE      CLOUDY    30  17  58 N8        30.34F WCI  22
MONROE         FAIR      31  16  54 NE10      30.32F WCI  22
WADESBORO      FAIR      24  20  83 CALM      30.35S
ROCKINGHAM     FAIR      29  15  54 CALM      30.34S
RUTHERFORDTON  FAIR      27  18  69 CALM      30.34F
ASHEVILLE      FAIR      27  15  61 SE3       30.29F

$$



USA.gov is the U.S. government's official web portal to all federal, state and local government web resources and services.